When you browse on this site, cookies collect data to enhance your experience and personalize the content and advertising you see.
Visit our Privacy Policy to learn more. By continuing to use the site, you agree to this use of cookies and data.
  • în România
  • Lista ţărilor
  • Pe 7 zile
  • Temperatura apei
  • Hartă satelitară
  • Meteo pe hartă
  • Widget-uri
  • user-avatar
    Intrare

    Meteo pe oră la Newport

    Astăzi, 22 Aprilie, Luni

    Timp Temperatura Precipitaţii Vânt Presiune Umiditate
    00:00 +9°C° 0 mm 5 m/s 755 mmHg 67%
    01:00 +9°C° 0 mm 5 m/s 754 mmHg 65%
    02:00 +10°C° 0 mm 4 m/s 754 mmHg 64%
    03:00 +10°C° 0 mm 4 m/s 753 mmHg 62%
    04:00 +10°C° 0 mm 4 m/s 753 mmHg 66%
    05:00 +10°C° 0 mm 4 m/s 752 mmHg 69%
    06:00 +9°C° 0 mm 5 m/s 752 mmHg 67%
    07:00 +12°C° 0 mm 5 m/s 751 mmHg 67%
    08:00 +14°C° 0 mm 5 m/s 751 mmHg 68%
    09:00 +15°C° 0 mm 5 m/s 750 mmHg 68%
    10:00 +16°C° 0 mm 5 m/s 750 mmHg 67%
    11:00 +18°C° 0 mm 4 m/s 750 mmHg 66%
    12:00 +18°C° 0 mm 4 m/s 749 mmHg 65%
    13:00 +18°C° 0 mm 4 m/s 749 mmHg 65%
    14:00 +19°C° 0 mm 3 m/s 748 mmHg 65%
    15:00 +19°C° 0 mm 3 m/s 748 mmHg 65%
    16:00 +18°C° 0 mm 3 m/s 747 mmHg 68%
    17:00 +17°C° 0 mm 3 m/s 747 mmHg 72%
    18:00 +17°C° 0 mm 3 m/s 747 mmHg 75%
    19:00 +16°C° 0 mm 3 m/s 747 mmHg 76%
    20:00 +14°C° 0 mm 3 m/s 747 mmHg 77%
    21:00 +13°C° 0 mm 3 m/s 747 mmHg 78%
    22:00 +13°C° 0 mm 4 m/s 746 mmHg 77%
    23:00 +13°C° 0 mm 4 m/s 746 mmHg 76%

    Mâine, 23 Aprilie, Marţi

    Timp Temperatura Precipitaţii Vânt Presiune Umiditate
    00:00 +13°C° 0 mm 5 m/s 745 mmHg 76%
    01:00 +13°C° 0 mm 5 m/s 745 mmHg 77%
    02:00 +13°C° 0 mm 5 m/s 744 mmHg 79%
    03:00 +12°C° 0 mm 5 m/s 744 mmHg 81%
    04:00 +12°C° 0 mm 4 m/s 744 mmHg 82%
    05:00 +12°C° 0 mm 4 m/s 744 mmHg 82%
    06:00 +12°C° 0 mm 4 m/s 744 mmHg 83%
    07:00 +13°C° 0 mm 5 m/s 744 mmHg 80%
    08:00 +15°C° 0 mm 5 m/s 744 mmHg 77%
    09:00 +16°C° 0 mm 5 m/s 744 mmHg 74%
    10:00 +16°C° 0 mm 5 m/s 743 mmHg 72%
    11:00 +17°C° 0 mm 5 m/s 743 mmHg 70%
    12:00 +17°C° 0 mm 5 m/s 743 mmHg 69%
    13:00 +17°C° 0 mm 5 m/s 743 mmHg 68%
    14:00 +17°C° 0 mm 5 m/s 743 mmHg 68%
    15:00 +17°C° 0 mm 5 m/s 742 mmHg 68%
    16:00 +16°C° 0 mm 5 m/s 742 mmHg 72%
    17:00 +16°C° 0 mm 5 m/s 742 mmHg 75%
    18:00 +15°C° 0 mm 5 m/s 742 mmHg 78%
    19:00 +14°C° 0 mm 5 m/s 741 mmHg 80%
    20:00 +14°C° 0 mm 5 m/s 741 mmHg 82%
    21:00 +13°C° 0 mm 5 m/s 741 mmHg 83%
    22:00 +13°C° 0 mm 5 m/s 741 mmHg 84%
    23:00 +13°C° 0 mm 5 m/s 741 mmHg 86%

    Poimâine, 24 Aprilie, Miercuri

    Timp Temperatura Precipitaţii Vânt Presiune Umiditate
    00:00 +12°C° 0 mm 4 m/s 740 mmHg 87%
    01:00 +12°C° 0 mm 4 m/s 740 mmHg 90%
    02:00 +12°C° 0 mm 4 m/s 740 mmHg 94%
    03:00 +11°C° 0 mm 4 m/s 739 mmHg 97%
    04:00 +10°C° 0.8 mm 6 m/s 740 mmHg 95%
    05:00 +10°C° 0.8 mm 7 m/s 740 mmHg 93%
    06:00 +10°C° 0.8 mm 9 m/s 740 mmHg 92%
    07:00 +9°C° 0.7 mm 8 m/s 741 mmHg 90%
    08:00 +9°C° 0.7 mm 7 m/s 742 mmHg 89%
    09:00 +9°C° 0.7 mm 6 m/s 742 mmHg 87%
    10:00 +10°C° 0 mm 6 m/s 743 mmHg 81%
    11:00 +11°C° 0 mm 6 m/s 743 mmHg 75%
    12:00 +12°C° 0 mm 7 m/s 743 mmHg 68%
    13:00 +12°C° 0.6 mm 7 m/s 743 mmHg 69%
    14:00 +12°C° 0.6 mm 7 m/s 743 mmHg 70%
    15:00 +12°C° 0.6 mm 7 m/s 744 mmHg 70%
    16:00 +12°C° 0.7 mm 8 m/s 743 mmHg 74%
    17:00 +11°C° 0.7 mm 8 m/s 743 mmHg 78%
    18:00 +10°C° 0.7 mm 8 m/s 743 mmHg 81%
    19:00 +10°C° 0.5 mm 9 m/s 743 mmHg 83%
    20:00 +8°C° 0.5 mm 11 m/s 743 mmHg 86%
    21:00 +8°C° 0.5 mm 12 m/s 743 mmHg 88%
    22:00 +8°C° 0.2 mm 11 m/s 742 mmHg 88%
    23:00 +8°C° 0.2 mm 10 m/s 742 mmHg 88%

    25 Aprilie, Joi

    Timp Temperatura Precipitaţii Vânt Presiune Umiditate
    00:00 +8°C° 0.2 mm 10 m/s 742 mmHg 89%
    01:00 +8°C° 1.6 mm 9 m/s 742 mmHg 90%
    02:00 +8°C° 1.6 mm 9 m/s 741 mmHg 90%
    03:00 +8°C° 1.6 mm 9 m/s 741 mmHg 91%
    04:00 +8°C° 0.1 mm 9 m/s 741 mmHg 89%
    05:00 +8°C° 0.1 mm 10 m/s 741 mmHg 87%
    06:00 +7°C° 0.1 mm 10 m/s 741 mmHg 85%
    07:00 +8°C° 0.1 mm 11 m/s 741 mmHg 81%
    08:00 +9°C° 0.1 mm 12 m/s 741 mmHg 77%
    09:00 +9°C° 0.1 mm 12 m/s 741 mmHg 73%
    10:00 +9°C° 0.9 mm 13 m/s 741 mmHg 78%
    11:00 +8°C° 0.9 mm 14 m/s 741 mmHg 83%
    12:00 +8°C° 0.9 mm 14 m/s 742 mmHg 89%
    13:00 +9°C° 0.3 mm 14 m/s 743 mmHg 82%
    14:00 +10°C° 0.3 mm 14 m/s 744 mmHg 76%
    15:00 +12°C° 0.3 mm 13 m/s 745 mmHg 69%
    16:00 +10°C° 0 mm 12 m/s 746 mmHg 71%
    17:00 +11°C° 0 mm 10 m/s 747 mmHg 74%
    18:00 +10°C° 0 mm 9 m/s 748 mmHg 76%
    19:00 +10°C° 0.1 mm 8 m/s 749 mmHg 76%
    20:00 +10°C° 0.1 mm 8 m/s 749 mmHg 77%
    21:00 +9°C° 0.1 mm 8 m/s 750 mmHg 77%
    22:00 +9°C° 0 mm 7 m/s 750 mmHg 78%
    23:00 +9°C° 0 mm 7 m/s 750 mmHg 80%

    26 Aprilie, Vineri

    Timp Temperatura Precipitaţii Vânt Presiune Umiditate
    00:00 +9°C° 0 mm 7 m/s 750 mmHg 81%
    01:00 +8°C° 0 mm 7 m/s 750 mmHg 81%
    02:00 +7°C° 0 mm 8 m/s 750 mmHg 82%
    03:00 +7°C° 0 mm 8 m/s 750 mmHg 82%
    04:00 +8°C° 0 mm 7 m/s 750 mmHg 83%
    05:00 +8°C° 0 mm 7 m/s 751 mmHg 85%
    06:00 +8°C° 0 mm 6 m/s 751 mmHg 87%
    07:00 +9°C° 0 mm 6 m/s 751 mmHg 84%
    08:00 +10°C° 0 mm 5 m/s 752 mmHg 82%
    09:00 +13°C° 0 mm 4 m/s 752 mmHg 80%
    10:00 +13°C° 0.3 mm 5 m/s 753 mmHg 80%
    11:00 +14°C° 0.3 mm 6 m/s 754 mmHg 80%
    12:00 +14°C° 0.3 mm 7 m/s 755 mmHg 79%
    13:00 +12°C° 0.3 mm 8 m/s 756 mmHg 79%
    14:00 +12°C° 0.3 mm 9 m/s 756 mmHg 78%
    15:00 +11°C° 0.3 mm 11 m/s 757 mmHg 78%
    16:00 +9°C° 0 mm 10 m/s 758 mmHg 75%
    17:00 +10°C° 0 mm 9 m/s 759 mmHg 72%
    18:00 +8°C° 0 mm 9 m/s 759 mmHg 69%
    19:00 +8°C° 0 mm 9 m/s 760 mmHg 73%
    20:00 +7°C° 0 mm 9 m/s 760 mmHg 77%
    21:00 +7°C° 0 mm 9 m/s 760 mmHg 82%
    22:00 +8°C° 0.2 mm 9 m/s 760 mmHg 85%
    23:00 +8°C° 0.2 mm 10 m/s 760 mmHg 89%

    27 Aprilie, Sâmbătă

    Timp Temperatura Precipitaţii Vânt Presiune Umiditate
    00:00 +9°C° 0.2 mm 10 m/s 759 mmHg 92%
    01:00 +8°C° 0.1 mm 9 m/s 760 mmHg 89%
    02:00 +7°C° 0.1 mm 8 m/s 760 mmHg 86%
    03:00 +6°C° 0.1 mm 7 m/s 760 mmHg 83%
    04:00 +6°C° 0 mm 7 m/s 761 mmHg 82%
    05:00 +6°C° 0 mm 7 m/s 761 mmHg 82%
    06:00 +7°C° 0 mm 6 m/s 762 mmHg 81%
    07:00 +8°C° 0 mm 6 m/s 762 mmHg 77%
    08:00 +9°C° 0 mm 7 m/s 762 mmHg 72%
    09:00 +10°C° 0 mm 7 m/s 763 mmHg 68%
    10:00 +11°C° 0 mm 8 m/s 762 mmHg 69%
    11:00 +11°C° 0 mm 9 m/s 762 mmHg 70%
    12:00 +12°C° 0 mm 9 m/s 762 mmHg 72%
    13:00 +12°C° 0.1 mm 10 m/s 762 mmHg 77%
    14:00 +12°C° 0.1 mm 11 m/s 761 mmHg 83%
    15:00 +12°C° 0.1 mm 12 m/s 761 mmHg 89%
    16:00 +12°C° 0 mm 12 m/s 761 mmHg 88%
    17:00 +12°C° 0 mm 11 m/s 761 mmHg 88%
    18:00 +12°C° 0 mm 11 m/s 761 mmHg 88%
    19:00 +12°C° 0 mm 11 m/s 761 mmHg 89%
    20:00 +12°C° 0 mm 10 m/s 762 mmHg 89%
    21:00 +12°C° 0 mm 10 m/s 762 mmHg 90%
    22:00 +11°C° 0 mm 10 m/s 762 mmHg 91%
    23:00 +11°C° 0 mm 9 m/s 762 mmHg 91%
    Arată mai mult